Location: Unspecified
(28.2000°N, 0.0000°E)
Time: 01:31:38
(UTC+00:00)

Altair 2 - Visible Passes

Search period start: 05 April 2026 00:00
Search period end: 15 April 2026 00:00
Orbit: 522 x 2142 km, 81.3° (Epoch: 29 March)

Date Brightness Start Highest point End Pass type
(mag) Time Alt. Az. Time Alt. Az. Time Alt. Az.
5 Apr 9.7 01:08:44 35° NNE 01:08:44 35° NNE 01:13:04 10° N visible
5 Apr 10.1 03:01:06 18° NW 03:01:06 18° NW 03:04:12 10° NNW visible
5 Apr 10.6 23:37:09 14° NE 23:37:09 14° NE 23:38:24 10° NE visible
6 Apr 9.7 01:29:30 34° N 01:29:30 34° N 01:33:43 10° N visible
6 Apr 10.4 03:21:52 11° NW 03:21:52 11° NW 03:22:19 10° NW visible
6 Apr 10.3 23:57:53 19° NE 23:57:53 19° NE 00:00:13 10° NNE visible
7 Apr 9.8 01:50:15 29° NNW 01:50:15 29° NNW 01:54:04 10° N visible
8 Apr 10.1 00:18:36 24° NNE 00:18:36 24° NNE 00:21:30 10° NNE visible
8 Apr 9.9 02:10:57 22° NNW 02:10:57 22° NNW 02:14:04 10° NNW visible
9 Apr 9.9 00:39:17 28° NNE 00:39:17 28° NNE 00:42:24 10° NNE visible
9 Apr 10.2 02:31:38 15° NW 02:31:38 15° NW 02:33:29 10° NNW visible
10 Apr 9.8 00:59:55 28° N 00:59:55 28° N 01:03:00 10° N visible
10 Apr 10.4 23:28:11 15° NE 23:28:11 15° NE 23:29:23 10° NNE visible
11 Apr 9.9 01:20:33 24° NNW 01:20:33 24° NNW 01:23:19 10° N visible
11 Apr 10.2 23:48:47 19° NNE 23:48:47 19° NNE 23:50:39 10° NNE visible
12 Apr 10.0 01:41:08 19° NNW 01:41:08 19° NNW 01:43:15 10° NNW visible
13 Apr 10.0 00:09:21 22° NNE 00:09:21 22° NNE 00:11:32 10° NNE visible
13 Apr 10.3 02:01:42 13° NW 02:01:42 13° NW 02:02:35 10° NNW visible
14 Apr 9.9 00:29:53 23° N 00:29:53 23° N 00:32:06 10° N visible
14 Apr 10.4 22:58:03 11° NE 22:58:03 11° NE 22:58:20 10° NE visible
